Content
SEND FEEDBACK

Daily
Averages
Monthly
Summary
United States of America

RICHFIELD SPRINGS, NEW YORK


Home > North America > United States > New York
Elevation: 1320 feet     Latitude: 42 55N     Longitude: 075 07W

WEATHER
 
SELECT A DAY
Number of Records: 26,462;   Date Range: 5/1/12 - 10/24/14
 
SHARE

PRINT THIS DATA

[ ← Previous Day ]
WEATHER ALMANAC - MARCH 14, 2014
[ Next Day → ]
[ °C ]   °F
Weather ElementAverageHighLow
Temperature25.8 °F43 °F (11:53 pm)12.9 °F (12:53 am)
Dewpoint14.9 °F26.1 °F (5:53 pm)5 °F (12:53 am)
Humidity64.5 %77 % (3:08 am)43 % (11:53 pm)
Barometer29.93 in30.10 in (12:53 am)29.67 in (11:53 pm)
Wind Speed7.6 mph13.8 mph (2:53 pm)
Weather ElementAverage
Visibility10 mi
Wind DirectionESE (106.8 °)

Weather ElementTotal
Precipitation---
Heating Degree Days37.1 (Base 65)
Averaged from 25 records on March 14, 2014
WEATHER CONDITIONS BREAKOUT
WIND DIRECTION BREAKOUT
WEATHER BY HOUR - MARCH 14, 2014
[ °C ]   °F
Local TimeTemperatureDewpointHumidityBarometerVisibilityWind DirectionWind SpeedGust SpeedPrecipitationEventsConditions
12:53 AM12.9 °F5.0 °F71 %30.10 in10.0 miWNW (300°)8.1 mph0.00 inOvercast
1:53 AM12.9 °F5.0 °F71 %30.10 in10.0 miWNW (290°)5.8 mphOvercast
2:53 AM12.9 °F6.1 °F74 %30.10 in10.0 miCalmOvercast
3:08 AM12.9 °F7.0 °F77 %30.07 in10.0 miCalmOvercast
3:53 AM12.9 °F7.0 °F77 %30.10 in10.0 miCalmOvercast
4:53 AM12.9 °F6.1 °F74 %30.10 in10.0 miEast (100°)3.5 mphOvercast
5:53 AM12.9 °F7.0 °F77 %30.09 in10.0 miEast (90°)4.6 mphOvercast
6:53 AM14.0 °F7.0 °F74 %30.07 in10.0 miEast (90°)5.8 mphOvercast
7:53 AM15.1 °F7.0 °F70 %30.07 in10.0 miEast (100°)9.2 mphMostly Cloudy
8:53 AM17.1 °F8.1 °F68 %30.06 in10.0 miESE (110°)9.2 mphOvercast
9:53 AM19.0 °F10.0 °F68 %30.05 in10.0 miESE (110°)9.2 mphOvercast
10:53 AM21.9 °F12.0 °F66 %30.02 in10.0 miESE (110°)10.4 mphOvercast
11:53 AM25.0 °F14.0 °F63 %30.00 in10.0 miESE (120°)9.2 mphOvercast
12:53 PM28.0 °F16.0 °F61 %29.95 in10.0 miESE (110°)12.7 mphOvercast
1:53 PM30.9 °F18.0 °F59 %29.92 in10.0 miESE (120°)11.5 mphPartly Cloudy
2:53 PM35.1 °F19.9 °F54 %29.85 in10.0 miESE (120°)13.8 mphClear
3:53 PM37.0 °F23.0 °F57 %29.81 in10.0 miESE (120°)10.4 mphScattered Clouds
4:53 PM37.9 °F25.0 °F60 %29.77 in10.0 miESE (120°)9.2 mphMostly Cloudy
5:53 PM37.0 °F26.1 °F65 %29.75 in10.0 miESE (120°)10.4 mphOvercast
6:53 PM36.0 °F26.1 °F67 %29.76 in10.0 miESE (110°)8.1 mphClear
7:53 PM37.0 °F25.0 °F62 %29.76 in10.0 miEast (90°)10.4 mphClear
8:53 PM37.9 °F25.0 °F60 %29.76 in10.0 miESE (120°)8.1 mphMostly Cloudy
9:53 PM41.0 °F23.0 °F49 %29.74 in10.0 miSSE (150°)6.9 mphOvercast
10:53 PM42.1 °F21.9 °F45 %29.70 in10.0 miENE (70°)8.1 mphOvercast
11:53 PM43.0 °F21.9 °F43 %29.67 in10.0 miVariable5.8 mphOvercast
Hourly data recorded from KRME, located miles away from Richfield Springs, New York







STORIES FROM OUR PARTNERS